Location: Unspecified
(0.0000°N, 0.0000°E)
Time: 06:48:41
(UTC+02:00)

Palapa 6 Rocket - Visible Passes

Search period start: 26 April 2015 00:00
Search period end: 06 May 2015 00:00
Orbit: 485 x 1228 km, 22.7° (Epoch: 24 April)

Date Brightness Start Highest point End Pass type
(mag) Time Alt. Az. Time Alt. Az. Time Alt. Az.
26 Apr 5.3 20:41:49 10° SW 20:48:27 29° SSE 20:52:46 17° ESE visible
26 Apr 5.4 22:30:57 10° WSW 22:34:47 32° SW 22:34:47 32° SW visible
27 Apr 5.2 20:28:19 10° SW 20:35:21 33° SSE 20:41:06 13° ESE visible
27 Apr 4.7 22:17:33 10° WSW 22:23:07 50° SW 22:23:07 50° SW visible
28 Apr 5.1 20:14:52 10° SW 20:22:13 38° SSE 20:29:00 10° E visible
28 Apr 4.1 22:04:12 10° WSW 22:11:32 80° WSW 22:11:32 80° WSW visible
29 Apr 4.2 21:50:53 10° WSW 21:58:50 80° NNW 22:00:00 65° NE visible
30 Apr 5.5 07:06:10 10° N 07:07:04 11° NNE 07:08:04 10° NE visible
30 Apr 4.4 21:37:35 10° WSW 21:45:37 72° NNW 21:48:31 39° NE visible
30 Apr 6.6 23:29:05 10° WNW 23:30:33 15° WNW 23:30:33 15° WNW visible
01 May 5.3 06:52:28 10° N 06:54:14 13° NNE 06:56:04 10° NE visible
01 May 4.7 21:24:20 10° WSW 21:32:22 64° NNW 21:37:03 24° NE visible
01 May 6.3 23:16:03 10° WNW 23:19:05 19° NW 23:19:05 19° NW visible
02 May 5.2 06:39:02 10° NNW 06:41:24 16° NNE 06:43:46 10° ENE visible
02 May 4.9 21:11:09 10° WSW 21:19:06 58° NNW 21:25:34 14° NE visible
02 May 6.1 23:03:02 10° WNW 23:07:36 22° NW 23:07:36 22° NW visible
03 May 5.0 06:26:12 12° NNW 06:28:34 19° NNE 06:31:22 10° ENE visible
03 May 5.2 20:57:59 10° W 21:05:51 52° NNW 21:13:14 10° NE visible
03 May 6.1 22:50:04 10° WNW 22:55:47 21° NNW 22:56:04 21° NNW visible
04 May 4.6 06:14:34 21° N 06:15:44 24° NNE 06:18:52 10° ENE visible
04 May 5.4 20:44:53 10° W 20:52:35 46° NNW 21:00:00 10° NE visible
04 May 6.2 22:37:07 10° WNW 22:42:40 20° NNW 22:44:28 18° N visible
05 May 4.3 06:02:58 30° NNE 06:02:58 30° NNE 06:06:19 10° E visible
05 May 5.6 20:31:50 10° W 20:39:20 42° NNW 20:46:42 10° NE visible
05 May 6.3 22:24:12 10° WNW 22:29:34 19° NNW 22:32:46 14° NNE visible
